Flag for Israel Weather past 2 weeks in Kfar Saba, Israel

Now
59 °F

Passing clouds.


Feels Like: 58 °F
Forecast: 53 / 65 °F
Wind: 6 mph from East

Location: Dov Airport

Current Time: Dec 20, 2014 at 9:28:14 PM

Latest Report: Dec 20, 2014 at 8:50 PM


Visibility: N/A

Pressure: 30.09 "Hg

Humidity: 82%

Dew point: 54 °F

Location of Kfar SabaLocation

Historic Weather in Kfar Saba — Graph

°F

Kfar Saba temperature yesterday

Maximum temperature yesterday: 66 °F (at 10:50 AM)
Minimum temperature yesterday: 59 °F (at 5:50 AM)
Average temperature yesterday: 64 °F

Past Weeks' High & Low Weather Summary

 TemperatureHumidityPressure
High81 °F (Dec 11, 1:50 PM)88% (Dec 14, 5:50 AM)30.21 "Hg (Dec 14, 5:50 AM)
Low55 °F (Dec 15, 5:00 AM)32% (Dec 13, 10:50 AM)29.74 "Hg (Dec 9, 5:50 AM)
Average66 °F66%30.03 "Hg
* Reported Dec 5 8:50 PM — Dec 20 8:00 PM, Kfar Saba, Weather by CustomWeather, © 2014

Note: Actual official high and low records may vary slightly from our data, if they occured in-between our weather recording intervals... More about our weather records

Advertising

Kfar Saba weather history for previous 24 hours

 ConditionsComfort  
Time TempWeatherWind HumidityBarometerVisibility
8:00 PM
Dec 20
61 °FRain. Passing clouds.3 mph77%30.09 "HgN/A
6:50 PM61 °FRain. Overcast.No wind83%30.09 "HgN/A
5:50 PM61 °FPassing clouds.3 mph77%30.07 "HgN/A
4:50 PM63 °FLight rain. Passing clouds.9 mph68%30.07 "HgN/A
3:50 PM66 °FLight rain. Scattered clouds.10 mph60%30.07 "HgN/A
2:50 PM68 °FScattered clouds.8 mph53%30.07 "HgN/A
1:50 PM68 °FScattered clouds.8 mph53%30.04 "HgN/A
12:50 PM68 °FPassing clouds.6 mph60%30.04 "HgN/A
11:50 AM68 °FScattered clouds.6 mph60%30.07 "HgN/A
10:50 AM66 °FScattered clouds.5 mph68%30.09 "HgN/A
9:50 AM66 °FScattered clouds.5 mph68%30.09 "HgN/A
8:50 AM63 °FScattered clouds.3 mph83%30.09 "HgN/A
7:50 AM59 °FScattered clouds.6 mph82%30.09 "HgN/A
6:50 AM57 °FScattered clouds.6 mph88%30.07 "Hg6 mi
6:00 AM57 °FPassing clouds.6 mph88%30.07 "Hg6 mi
9:50 PM
Dec 19
63 °FPassing clouds.3 mph77%30.07 "Hg6 mi
Weather by CustomWeather, © 2014

See weather overviewHow to use our weather pages